Location: Newark
(49.8348°N, 24.0280°E)
Time: 12:51:30
(UTC+00:00)

Transit 2A - Visible Passes

Search period start: 17 January 2021 00:00
Search period end: 27 January 2021 00:00
Orbit: 598 x 960 km, 66.7° (Epoch: 16 January)

Date Brightness Start Highest point End Pass type
(mag) Time Alt. Az. Time Alt. Az. Time Alt. Az.
17 Jan 8.1 03:03:44 10° SSE 03:08:33 26° ESE 03:13:04 10° ENE visible
17 Jan 6.1 04:45:39 10° SW 04:51:28 67° NW 04:56:44 10° NNE visible
18 Jan 8.5 02:30:33 10° SSE 02:34:35 19° ESE 02:38:22 10° ENE visible
18 Jan 6.1 04:11:21 10° SW 04:17:15 87° NW 04:22:36 10° NE visible
19 Jan 8.9 01:58:14 11° SE 02:00:38 14° ESE 02:03:17 10° ENE visible
19 Jan 6.3 03:38:51 19° SSW 03:43:05 71° ESE 03:48:24 10° NE visible
19 Jan 6.9 05:21:46 10° W 05:26:42 30° NW 05:31:15 10° NNE visible
20 Jan 6.8 03:07:08 37° S 03:08:58 52° ESE 03:14:08 10° NE visible
20 Jan 6.6 04:47:43 13° WSW 04:52:21 37° NW 04:57:11 10° NNE visible
21 Jan 7.3 02:34:58 38° ESE 02:34:58 38° ESE 02:39:49 10° NE visible
21 Jan 6.3 04:15:31 29° WSW 04:18:02 48° NW 04:23:06 10° NNE visible
22 Jan 8.1 02:02:30 24° E 02:02:30 24° E 02:05:22 10° NE visible
22 Jan 6.0 03:43:02 57° W 03:43:47 63° NW 03:48:59 10° NNE visible
22 Jan 7.4 05:24:00 10° WNW 05:27:54 19° NNW 05:31:34 10° NNE visible
23 Jan 8.8 01:29:51 13° ENE 01:29:51 13° ENE 01:30:44 10° ENE visible
23 Jan 6.2 03:10:22 66° NNE 03:10:22 66° NNE 03:14:50 10° NE visible
23 Jan 7.2 04:50:53 17° WNW 04:53:27 23° NNW 04:57:31 10° NNE visible
24 Jan 7.3 02:37:33 37° NE 02:37:33 37° NE 02:40:39 10° NE visible
24 Jan 7.0 04:18:04 27° NW 04:19:02 28° NW 04:23:27 10° NNE visible
25 Jan 8.2 02:04:38 22° NE 02:04:38 22° NE 02:06:25 10° NE visible
25 Jan 6.8 03:45:08 35° NNW 03:45:08 35° NNW 03:49:24 10° NNE visible
25 Jan 7.8 05:26:38 10° NW 05:29:19 14° NNW 05:31:54 10° NNE visible
26 Jan 8.8 01:31:37 12° NE 01:31:37 12° NE 01:32:06 10° NE visible
26 Jan 7.1 03:12:08 33° N 03:12:08 33° N 03:15:19 10° NNE visible
26 Jan 7.7 04:52:37 13° NW 04:54:46 16° NNW 04:57:49 10° NNE visible
